Flag for Faroe Islands Weather past 2 weeks in Tórshavn, Faroe Islands, Faroe Islands

Now
41 °F

Light rain. Partly sunny.


Feels Like: 31 °F
Forecast: N/A
Wind: 24 mph from Southwest

Location: Soervaag / Vagar

Current Time: Mar 6, 2015 at 5:48:02 PM

Latest Report: Mar 6, 2015 at 5:20 PM


Visibility: N/A

Pressure: 29.06 "Hg

Humidity: 87%

Dew point: 37 °F

Location of TórshavnLocation

Historic Weather in Tórshavn — Graph

°F

Tórshavn temperature yesterday

Maximum temperature yesterday: 46 °F (at 12:50 AM)
Minimum temperature yesterday: 37 °F (at 3:20 PM)
Average temperature yesterday: 43 °F

Past Weeks' High & Low Weather Summary

 TemperatureHumidityPressure
High46 °F (Feb 25, 9:51 PM)100% (Feb 22, 3:50 PM)30.04 "Hg (Feb 22, 3:50 PM)
Low23 °F (Feb 22, 3:50 AM)51% (Feb 21, 7:50 PM)28.32 "Hg (Feb 23, 4:20 AM)
Average37 °F80%29.13 "Hg
* Reported Feb 19 4:20 PM — Mar 6 4:50 PM, Tórshavn, Weather by CustomWeather, © 2015

Note: Actual official high and low records may vary slightly from our data, if they occured in-between our weather recording intervals... More about our weather records

Advertising

Tórshavn weather history for previous 24 hours

 ConditionsComfort  
Time TempWeatherWind HumidityBarometerVisibility
4:50 PM
Fri, Mar 6
43 °FDrizzle. Overcast.24 mph81%29.06 "HgN/A
4:20 PM43 °FDrizzle. Partly sunny.21 mph87%29.06 "Hg5 mi
3:50 PM41 °FLight rain. Partly sunny.17 mph93%29.06 "Hg4 mi
3:20 PM46 °FLight rain. Low clouds.29 mph93%29.03 "Hg3 mi
2:50 PM46 °FLight rain. Low clouds.26 mph93%29.09 "Hg3 mi
2:20 PM45 °FLight rain. Fog.26 mph100%29.12 "Hg2 mi
1:50 PM46 °FLight rain. Partly sunny.23 mph93%29.15 "Hg3 mi
1:20 PM46 °FLight rain. Low clouds.28 mph93%29.18 "Hg4 mi
12:50 PM45 °FLight rain. Partly sunny.18 mph93%29.24 "Hg4 mi
12:20 PM45 °FLight rain. Partly sunny.20 mph93%29.27 "HgN/A
11:50 AM45 °FLight rain. Partly sunny.29 mph93%29.33 "Hg6 mi
11:20 AM43 °FSprinkles. Partly sunny.28 mph93%29.36 "Hg5 mi
10:50 AM43 °FSprinkles. Partly sunny.22 mph93%29.39 "HgN/A
10:20 AM43 °FSprinkles. Partly sunny.30 mph93%29.47 "HgN/A
9:50 AM43 °FPartly sunny.35 mph87%29.50 "HgN/A
9:20 AM43 °FDrizzle. Partly sunny.25 mph87%29.56 "HgN/A
8:50 AM43 °FBroken clouds.21 mph81%29.59 "HgN/A
8:20 AM41 °FPartly sunny.18 mph87%29.62 "HgN/A
7:50 AM41 °FPartly sunny.17 mph93%29.68 "HgN/A
7:20 AM41 °FSprinkles. Partly sunny.16 mph87%29.68 "HgN/A
6:50 AM41 °FPassing clouds.16 mph81%29.71 "HgN/A
6:20 AM41 °FPartly cloudy.18 mph81%29.74 "HgN/A
5:50 AM41 °FPassing clouds.13 mph81%29.77 "HgN/A
5:20 AM39 °FLight rain. Passing clouds.20 mph81%29.80 "HgN/A
4:50 AM43 °FPassing clouds.16 mph71%29.80 "HgN/A
4:20 AM41 °FPassing clouds.12 mph76%29.80 "HgN/A
3:20 AM41 °FPassing clouds.14 mph76%29.83 "HgN/A
2:50 AM41 °FPassing clouds.16 mph66%29.86 "HgN/A
2:20 AM41 °FPassing clouds.13 mph81%29.86 "HgN/A
1:50 AM39 °FPassing clouds.9 mph81%29.89 "HgN/A
1:20 AM41 °FPassing clouds.13 mph70%29.86 "HgN/A
12:50 AM41 °FPassing clouds.10 mph70%29.86 "HgN/A
12:20 AM41 °FPassing clouds.12 mph70%29.89 "HgN/A
11:50 PM
Thu, Mar 5
41 °FPassing clouds.12 mph70%29.89 "HgN/A
11:20 PM41 °FPassing clouds.13 mph66%29.89 "HgN/A
10:50 PM41 °FSprinkles. Passing clouds.14 mph70%29.89 "HgN/A
10:20 PM41 °FPassing clouds.16 mph70%29.89 "HgN/A
9:50 PM39 °FPassing clouds.12 mph81%29.86 "HgN/A
9:20 PM41 °FPassing clouds.10 mph70%29.89 "HgN/A
8:20 PM39 °FSprinkles. Passing clouds.16 mph81%29.86 "HgN/A
7:50 PM39 °FPassing clouds.14 mph81%29.86 "HgN/A
7:20 PM37 °FSprinkles. Passing clouds.16 mph75%29.83 "HgN/A
6:50 PM41 °FPassing clouds.18 mph76%29.83 "HgN/A
6:20 PM41 °FPassing clouds.17 mph70%29.80 "HgN/A
5:50 PM41 °FPartly sunny.20 mph70%29.80 "HgN/A
5:20 PM41 °FSprinkles. Partly sunny.17 mph70%29.80 "HgN/A
Weather by CustomWeather, © 2015

See weather overviewHow to use our weather pages